Volver al catálogo

USA 134

ActivoMilitarGEO
NORAD 25019·PAYLOAD·🇺🇸 United States

Lanzado Oct 25, 1997 desde Cape Canaveral Space Force Station

Loading…

TLE

ActualizadoSource: Space-Track

Época: Sep 14, 2026, 10:39 UTC

1 25019U 97065A   26257.44391446 -.00000070  00000-0  00000-0 0  9999
2 25019  12.8900  21.0355 0002609 273.2861 106.7345  1.00270064 33856

Sigue USA 134 en tiempo real con AllMySat

Download on the App Store